[keps] orb12285.amsat

Ray Hoad ray.hoad at mypbmail.com
Thu Oct 11 21:08:05 PDT 2012


SB KEPS @ AMSAT  $ORB12285.O
Orbital Elements  12285.OSCAR

HR AMSAT ORBITAL ELEMENTS FOR OSCAR SATELLITES
FROM WA5QGD FORT WORTH,TX October 11, 2012
Send SUBSCRIBE KEPS/UNSUBSCRIBE KEPS to majordomo at amsat.org only
BID: ORB12285.O
TO ALL RADIO AMATEURS BT

Satellite: AO-07
Catalog number: 07530
Epoch time:      12284.54406943
Element set:    0503
Inclination:      101.4121 deg
RA of node:       277.3381 deg
Eccentricity:    0.0012216
Arg of perigee:   056.3496 deg
Mean anomaly:     303.8739 deg
Mean motion:   12.53591863 rev/day
Decay rate:       -2.7e-07 rev/day^2
Epoch rev:           73450
Checksum:              284

Satellite: FO-29
Catalog number: 24278
Epoch time:      12284.84366523
Element set:    0960
Inclination:      098.5862 deg
RA of node:       010.3749 deg
Eccentricity:    0.0351253
Arg of perigee:   089.9153 deg
Mean anomaly:     274.2229 deg
Mean motion:   13.52989879 rev/day
Decay rate:      -1.12e-06 rev/day^2
Epoch rev:           79759
Checksum:              360

Satellite: SO-33
Catalog number: 25509
Epoch time:      12284.69490101
Element set:    0343
Inclination:      031.4311 deg
RA of node:       039.9828 deg
Eccentricity:    0.0351645
Arg of perigee:   134.1397 deg
Mean anomaly:     228.8708 deg
Mean motion:   14.28835689 rev/day
Decay rate:       7.74e-06 rev/day^2
Epoch rev:           72918
Checksum:              332

Satellite: RS-22
Catalog number: 27939
Epoch time:      12285.52143805
Element set:     804
Inclination:      097.8032 deg
RA of node:       120.3386 deg
Eccentricity:    0.0012272
Arg of perigee:   257.1627 deg
Mean anomaly:     102.8222 deg
Mean motion:   14.64162501 rev/day
Decay rate:       6.11e-06 rev/day^2
Epoch rev:           48290
Checksum:              276

Satellite: VO-52
Catalog number: 28650
Epoch time:      12285.90894416
Element set:     231
Inclination:      097.5890 deg
RA of node:       311.1180 deg
Eccentricity:    0.0026934
Arg of perigee:   020.1270 deg
Mean anomaly:     340.1008 deg
Mean motion:   14.83250294 rev/day
Decay rate:      1.698e-05 rev/day^2
Epoch rev:           40227
Checksum:              284

Satellite: HO-68
Catalog number: 36122
Epoch time:      12285.73468733
Element set:     909
Inclination:      100.3467 deg
RA of node:       342.6591 deg
Eccentricity:    0.0007448
Arg of perigee:   199.6645 deg
Mean anomaly:     160.4196 deg
Mean motion:   13.16298786 rev/day
Decay rate:       -4.4e-07 rev/day^2
Epoch rev:           13572
Checksum:              335

/EX
SB KEPS @ AMSAT  $ORB12285.D
Orbital Elements  12285.MICROS

HR AMSAT ORBITAL ELEMENTS FOR THE MICROSATS
FROM WA5QGD FORT WORTH,TX October 11, 2012
Send SUBSCRIBE KEPS/UNSUBSCRIBE KEPS to majordomo at amsat.org only
BID: ORB12285.D
TO ALL RADIO AMATEURS BT

Satellite: UO-11
Catalog number: 14781
Epoch time:      12285.77223597
Element set:     998
Inclination:      097.9412 deg
RA of node:       344.1923 deg
Eccentricity:    0.0009573
Arg of perigee:   021.4523 deg
Mean anomaly:     338.7087 deg
Mean motion:   14.80593703 rev/day
Decay rate:       4.74e-06 rev/day^2
Epoch rev:           53718
Checksum:              333

Satellite: AO-16
Catalog number: 20439
Epoch time:      12284.86022359
Element set:    0596
Inclination:      098.4399 deg
RA of node:       225.0510 deg
Eccentricity:    0.0010749
Arg of perigee:   172.0277 deg
Mean anomaly:     188.1078 deg
Mean motion:   14.32093512 rev/day
Decay rate:       1.51e-06 rev/day^2
Epoch rev:           18655
Checksum:              306

Satellite: LO-19
Catalog number: 20442
Epoch time:      12284.86576553
Element set:    0524
Inclination:      098.4080 deg
RA of node:       227.6649 deg
Eccentricity:    0.0011935
Arg of perigee:   163.7384 deg
Mean anomaly:     196.4181 deg
Mean motion:   14.32309612 rev/day
Decay rate:       2.52e-06 rev/day^2
Epoch rev:           18674
Checksum:              317

Satellite: AO-27
Catalog number: 22825
Epoch time:      12284.87855401
Element set:    0227
Inclination:      098.5855 deg
RA of node:       225.9482 deg
Eccentricity:    0.0007836
Arg of perigee:   304.7328 deg
Mean anomaly:     055.3108 deg
Mean motion:   14.29494567 rev/day
Decay rate:       1.95e-06 rev/day^2
Epoch rev:           99300
Checksum:              336

Satellite: IO-26
Catalog number: 22826
Epoch time:      12284.85718195
Element set:    0983
Inclination:      098.5793 deg
RA of node:       226.2679 deg
Eccentricity:    0.0008308
Arg of perigee:   298.7575 deg
Mean anomaly:     061.2768 deg
Mean motion:   14.29771342 rev/day
Decay rate:       1.37e-06 rev/day^2
Epoch rev:           99313
Checksum:              362

Satellite: GO-32
Catalog number: 25397
Epoch time:      12284.47869845
Element set:    0896
Inclination:      098.3779 deg
RA of node:       257.5965 deg
Eccentricity:    0.0000792
Arg of perigee:   358.5370 deg
Mean anomaly:     001.5802 deg
Mean motion:   14.23297628 rev/day
Decay rate:       1.24e-06 rev/day^2
Epoch rev:           74042
Checksum:              347

Satellite: NO-44
Catalog number: 26931
Epoch time:      12284.73787059
Element set:     156
Inclination:      067.0514 deg
RA of node:       182.5194 deg
Eccentricity:    0.0005866
Arg of perigee:   252.8751 deg
Mean anomaly:     107.1723 deg
Mean motion:   14.29840668 rev/day
Decay rate:       1.26e-06 rev/day^2
Epoch rev:           57576
Checksum:              330

Satellite: SO-50
Catalog number: 27607
Epoch time:      12283.67780720
Element set:    0886
Inclination:      064.5578 deg
RA of node:       306.5852 deg
Eccentricity:    0.0075347
Arg of perigee:   225.5038 deg
Mean anomaly:     133.9907 deg
Mean motion:   14.72558771 rev/day
Decay rate:       5.60e-06 rev/day^2
Epoch rev:           52682
Checksum:              340

Satellite: CO-55
Catalog number: 27844
Epoch time:      12284.60521043
Element set:     481
Inclination:      098.7042 deg
RA of node:       291.3193 deg
Eccentricity:    0.0008807
Arg of perigee:   248.0684 deg
Mean anomaly:     111.9609 deg
Mean motion:   14.21086593 rev/day
Decay rate:       3.33e-06 rev/day^2
Epoch rev:           48128
Checksum:              307

Satellite: CO-57
Catalog number: 27848
Epoch time:      12285.54480205
Element set:     431
Inclination:      098.7102 deg
RA of node:       291.6327 deg
Eccentricity:    0.0008744
Arg of perigee:   251.0054 deg
Mean anomaly:     109.0207 deg
Mean motion:   14.20830680 rev/day
Decay rate:       2.83e-06 rev/day^2
Epoch rev:           48135
Checksum:              287

Satellite: AO-51
Catalog number: 28375
Epoch time:      12284.83342281
Element set:     385
Inclination:      098.1617 deg
RA of node:       244.8210 deg
Eccentricity:    0.0084717
Arg of perigee:   050.7903 deg
Mean anomaly:     310.0780 deg
Mean motion:   14.41000494 rev/day
Decay rate:       2.84e-06 rev/day^2
Epoch rev:           43542
Checksum:              287

Satellite: CP3
Catalog number: 31129
Epoch time:      12285.51891659
Element set:     285
Inclination:      097.8866 deg
RA of node:       286.4768 deg
Eccentricity:    0.0101645
Arg of perigee:   120.8638 deg
Mean anomaly:     240.2565 deg
Mean motion:   14.53242548 rev/day
Decay rate:       7.50e-06 rev/day^2
Epoch rev:           29087
Checksum:              335

Satellite: CO-65
Catalog number: 32785
Epoch time:      12285.82739799
Element set:     439
Inclination:      097.7851 deg
RA of node:       344.0508 deg
Eccentricity:    0.0015433
Arg of perigee:   045.0394 deg
Mean anomaly:     315.1980 deg
Mean motion:   14.83260861 rev/day
Decay rate:      1.332e-05 rev/day^2
Epoch rev:           24105
Checksum:              322

Satellite: PRISM
Catalog number: 33493
Epoch time:      12285.76063345
Element set:     153
Inclination:      098.1874 deg
RA of node:       069.2623 deg
Eccentricity:    0.0017663
Arg of perigee:   279.1770 deg
Mean anomaly:     080.7452 deg
Mean motion:   14.84489606 rev/day
Decay rate:      3.375e-05 rev/day^2
Epoch rev:           20104
Checksum:              313

Satellite: SOHLA-1
Catalog number: 33496
Epoch time:      12284.88701744
Element set:    0875
Inclination:      098.1143 deg
RA of node:       035.9254 deg
Eccentricity:    0.0007332
Arg of perigee:   039.9014 deg
Mean anomaly:     320.2718 deg
Mean motion:   14.70069173 rev/day
Decay rate:       5.20e-06 rev/day^2
Epoch rev:           19924
Checksum:              300

Satellite: SO-67
Catalog number: 35870
Epoch time:      12285.77108605
Element set:     409
Inclination:      097.2227 deg
RA of node:       317.4142 deg
Eccentricity:    0.0003816
Arg of perigee:   111.2676 deg
Mean anomaly:     339.2774 deg
Mean motion:   15.24768338 rev/day
Decay rate:      5.041e-05 rev/day^2
Epoch rev:           17037
Checksum:              313

Satellite: TISAT-1
Catalog number: 36799
Epoch time:      12285.79743615
Element set:     427
Inclination:      098.0542 deg
RA of node:       002.9583 deg
Eccentricity:    0.0015803
Arg of perigee:   151.9037 deg
Mean anomaly:     208.2970 deg
Mean motion:   14.82356671 rev/day
Decay rate:      2.228e-05 rev/day^2
Epoch rev:           12176
Checksum:              317

Satellite: STUDSAT
Catalog number: 36801
Epoch time:      12284.84696881
Element set:    0507
Inclination:      098.0606 deg
RA of node:       003.2889 deg
Eccentricity:    0.0013275
Arg of perigee:   140.8336 deg
Mean anomaly:     219.3846 deg
Mean motion:   14.85429232 rev/day
Decay rate:      4.941e-05 rev/day^2
Epoch rev:           12168
Checksum:              316

Satellite: FO-69
Catalog number: 37227
Epoch time:      12285.31789631
Element set:    0309
Inclination:      071.9697 deg
RA of node:       055.6713 deg
Eccentricity:    0.0015407
Arg of perigee:   106.3938 deg
Mean anomaly:     253.8951 deg
Mean motion:   14.77208102 rev/day
Decay rate:       8.82e-06 rev/day^2
Epoch rev:           05324
Checksum:              324

